KC1OHT-13 Weather Reports


time (UTC)temp
F
wind
direction
speed
knots
gust
knots
rain 1hr
in
rain 24hr
in
rain mn
in
humidity
%
barometer
mb
20260505063327 53 52 0.0 0.9 0.00 0.00 0.00 76 1008.3
20260505062824 53 338 0.9 0.9 0.00 0.00 0.00 76 1008.6
20260505062322 53 5 0.9 0.9 0.00 0.00 0.00 76 1008.4
20260505061818 53 291 0.9 1.7 0.00 0.00 0.00 76 1008.5
20260505061317 53 18 0.0 0.0 0.00 0.00 0.00 76 1008.4
20260505060814 54 6 0.0 0.9 0.00 0.00 0.00 76 1008.4
20260505060311 54 25 0.0 0.9 0.00 0.00 0.00 75 1008.4
20260505055806 54 30 0.0 0.0 0.00 0.00 0.00 75 1008.6
20260505055303 54 50 0.0 0.9 0.00 0.00 0.00 75 1008.4
20260505054800 54 7 0.0 0.9 0.00 0.00 0.00 74 1008.5
20260505054257 54 355 0.9 0.9 0.00 0.00 0.00 74 1008.2
20260505053755 54 14 0.0 0.9 0.00 0.00 0.00 73 1008.4
20260505053252 54 16 0.0 0.9 0.00 0.00 0.00 73 1008.4
20260505052749 55 321 0.9 1.7 0.00 0.00 0.00 73 1008.5
20260505052246 55 36 0.0 0.0 0.00 0.00 0.00 72 1008.5
20260505051743 55 24 0.9 0.9 0.00 0.00 0.00 71 1008.5
20260505051241 55 48 0.0 0.9 0.00 0.00 0.00 71 1008.4
20260505050738 55 24 0.9 1.7 0.00 0.00 0.00 71 1008.4
20260505050237 55 19 0.9 0.9 0.00 0.00 0.00 71 1008.5
20260505041706 56 298 1.7 1.7 0.00 0.00 0.00 67 1008.8
20260505041204 56 60 0.9 0.9 0.00 0.00 0.00 67 1008.5
20260505040701 56 16 0.9 0.9 0.00 0.00 0.00 66 1008.3
20260505040158 57 297 1.7 1.7 0.00 0.00 0.00 66 1008.4
20260505035655 56 293 1.7 1.7 0.00 0.00 0.00 65 1008.5
20260505035151 57 30 0.9 0.9 0.00 0.00 0.00 65 1008.4
20260505034647 57 337 1.7 1.7 0.00 0.00 0.00 64 1008.2
20260505034145 57 221 1.7 1.7 0.00 0.00 0.00 64 1008.3
20260505033641 57 13 2.6 6.1 0.00 0.00 0.00 64 1008.3
20260505033139 57 51 1.7 2.6 0.00 0.00 0.00 64 1008.3
20260505032637 57 77 0.9 1.7 0.00 0.00 0.00 62 1008.2
20260505032133 57 313 0.9 0.9 0.00 0.00 0.00 62 1008.5
20260505031630 58 81 0.9 0.9 0.00 0.00 0.00 61 1008.4
20260505031126 57 16 0.9 0.9 0.00 0.00 0.00 61 1008.2
20260505030624 58 21 0.0 0.9 0.00 0.00 0.00 61 1008.4
20260505030119 58 41 1.7 1.7 0.00 0.00 0.00 60 1008.5
20260505025615 58 316 0.9 0.9 0.00 0.00 0.00 59 1008.5
20260505025114 58 43 0.9 0.9 0.00 0.00 0.00 59 1008.2
20260505024611 58 91 0.9 0.9 0.00 0.00 0.00 58 1008.2
20260505024109 58 162 1.7 1.7 0.00 0.00 0.00 58 1008.5
20260505023606 58 321 0.9 1.7 0.00 0.00 0.00 58 1008.4
20260505023103 58 104 0.9 1.7 0.00 0.00 0.00 57 1008.4
20260505022600 59 184 0.9 1.7 0.00 0.00 0.00 57 1008.3
20260505022057 59 58 2.6 3.5 0.00 0.00 0.00 56 1008.5
20260505021554 59 216 1.7 2.6 0.00 0.00 0.00 56 1008.5
20260505021051 58 111 0.9 1.7 0.00 0.00 0.00 57 1008.4
20260505020550 58 185 1.7 2.6 0.00 0.00 0.00 57 1008.4
20260505020048 58 1 0.9 0.9 0.00 0.00 0.00 57 1008.4
20260505015545 58 48 1.7 2.6 0.00 0.00 0.00 57 1008.3
20260505015041 58 40 0.0 0.0 0.00 0.00 0.00 58 1008.3
20260505014538 58 28 0.9 0.9 0.00 0.00 0.00 59 1008.4
20260505014035 58 71 0.9 1.7 0.00 0.00 0.00 61 1008.2
20260505013532 58 122 0.9 0.9 0.00 0.00 0.00 61 1008.3
20260505013030 58 44 1.7 3.5 0.00 0.00 0.00 61 1008.1
20260505012528 59 44 0.9 0.9 0.00 0.00 0.00 58 1008.2
20260505012025 60 158 0.9 1.7 0.00 0.00 0.00 52 1008.0
20260505011520 61 23 1.7 5.2 0.00 0.00 0.00 51 1007.9
20260505011018 61 197 1.7 3.5 0.00 0.00 0.00 49 1007.9
20260505010513 61 200 4.3 5.2 0.00 0.00 0.00 48 1007.7
20260505010010 61 278 3.5 3.5 0.00 0.00 0.00 48 1007.8
20260505005506 61 298 2.6 3.5 0.00 0.00 0.00 49 1007.5
20260505005004 60 289 0.9 1.7 0.00 0.00 0.00 51 1007.6
20260505004501 60 147 1.7 1.7 0.00 0.00 0.00 53 1007.6
20260505003958 60 11 0.9 0.9 0.00 0.00 0.00 53 1007.5
20260505003455 60 131 0.9 1.7 0.00 0.00 0.00 53 1007.3
20260505002950 61 318 3.5 6.1 0.00 0.00 0.00 53 1007.1
20260505002447 61 149 1.7 2.6 0.00 0.00 0.00 53 1006.9
20260505001945 61 187 2.6 5.2 0.00 0.00 0.00 53 1007.0
20260505001442 60 145 2.6 3.5 0.00 0.00 0.00 55 1006.8
20260505000939 60 188 2.6 3.5 0.00 0.00 0.00 56 1006.7
20260505000437 60 186 4.3 6.1 0.00 0.00 0.00 55 1006.4
20260504235934 62 49 1.7 1.7 0.00 0.00 0.00 55 1006.4
20260504235431 62 37 0.9 0.9 0.00 0.00 0.00 53 1006.5
20260504234927 62 102 4.3 7.0 0.00 0.00 0.00 52 1006.4
20260504234425 63 85 1.7 2.6 0.00 0.00 0.00 49 1006.2
20260504233921 64 188 0.9 0.9 0.00 0.00 0.00 48 1006.2
20260504233417 64 112 2.6 5.2 0.00 0.00 0.00 48 1006.1
20260504232914 64 256 4.3 6.1 0.00 0.00 0.00 46 1005.8
20260504232411 65 262 4.3 7.0 0.00 0.00 0.00 45 1005.8
20260504231908 65 336 1.7 3.5 0.00 0.00 0.00 44 1005.9
20260504231404 65 162 3.5 5.2 0.00 0.00 0.00 44 1005.7
20260504230901 65 296 1.7 2.6 0.00 0.00 0.00 43 1005.6
20260504230358 66 273 1.7 2.6 0.00 0.00 0.00 43 1005.5
20260504225857 66 73 0.9 0.9 0.00 0.00 0.00 43 1005.5
20260504225353 67 148 3.5 5.2 0.00 0.00 0.00 42 1005.4
20260504224851 67 207 1.7 3.5 0.00 0.00 0.00 40 1005.1
20260504224347 67 125 2.6 5.2 0.00 0.00 0.00 40 1005.3
20260504223844 67 175 6.1 7.8 0.00 0.00 0.00 41 1004.9
20260504223339 67 313 1.7 2.6 0.00 0.00 0.00 41 1005.1
20260504222836 67 105 4.3 7.0 0.00 0.00 0.00 40 1005.0
20260504222333 68 171 2.6 2.6 0.00 0.00 0.00 40 1004.9
20260504221832 70 203 1.7 2.6 0.00 0.00 0.00 35 1005.0
20260504221328 71 177 1.7 2.6 0.00 0.00 0.00 30 1005.0
20260504220825 71 200 3.5 6.1 0.00 0.00 0.00 30 1004.8
20260504220322 71 307 2.6 2.6 0.00 0.00 0.00 30 1004.9
20260504215819 72 252 1.7 2.6 0.00 0.00 0.00 29 1004.9
20260504215315 72 301 4.3 6.1 0.00 0.00 0.00 29 1005.0
20260504214811 72 3 0.9 0.9 0.00 0.00 0.00 29 1004.8
20260504214309 72 64 1.7 1.7 0.00 0.00 0.00 28 1005.0
20260504213805 73 330 1.7 1.7 0.00 0.00 0.00 28 1004.8
20260504213301 73 276 3.5 3.5 0.00 0.00 0.00 28 1004.9
20260504212759 73 240 3.5 6.1 0.00 0.00 0.00 28 1004.9
20260504212254 73 210 3.5 3.5 0.00 0.00 0.00 28 1004.8
20260504211752 73 334 3.5 5.2 0.00 0.00 0.00 28 1004.7
20260504211248 73 327 3.5 3.5 0.00 0.00 0.00 27 1004.9
20260504210746 73 24 5.2 7.0 0.00 0.00 0.00 27 1004.6
20260504210243 74 245 3.5 5.2 0.00 0.00 0.00 27 1004.9
20260504205740 73 290 1.7 1.7 0.00 0.00 0.00 27 1004.9
20260504205238 74 281 4.3 6.1 0.00 0.00 0.00 27 1004.7
20260504204736 72 8 2.6 2.6 0.00 0.00 0.00 27 1004.8
20260504204234 74 309 2.6 7.0 0.00 0.00 0.00 26 1004.8
20260504203733 74 5 3.5 5.2 0.00 0.00 0.00 27 1004.9
20260504203230 74 330 1.7 2.6 0.00 0.00 0.00 26 1004.6
20260504202729 74 313 3.5 5.2 0.00 0.00 0.00 26 1004.8
20260504202227 73 217 1.7 2.6 0.00 0.00 0.00 26 1005.0
20260504201724 74 359 4.3 6.1 0.00 0.00 0.00 25 1005.0
20260504201221 74 312 3.5 3.5 0.00 0.00 0.00 25 1005.0
20260504200719 74 221 5.2 7.8 0.00 0.00 0.00 25 1005.0
20260504200214 75 227 3.5 6.1 0.00 0.00 0.00 25 1005.0
20260504195711 75 205 1.7 1.7 0.00 0.00 0.00 25 1004.8
20260504195207 75 301 2.6 2.6 0.00 0.00 0.00 25 1004.8
20260504194704 74 273 1.7 2.6 0.00 0.00 0.00 25 1005.0
20260504194200 74 227 3.5 3.5 0.00 0.00 0.00 25 1004.9
20260504193657 73 281 3.5 5.2 0.00 0.00 0.00 25 1004.8
20260504193155 74 197 3.5 8.7 0.00 0.00 0.00 25 1004.8
20260504192652 74 159 1.7 1.7 0.00 0.00 0.00 25 1004.8
20260504192150 73 343 3.5 3.5 0.00 0.00 0.00 25 1004.9
20260504191649 74 43 7.0 8.7 0.00 0.00 0.00 24 1004.6
20260504191144 73 303 1.7 1.7 0.00 0.00 0.00 25 1005.0
20260504190641 74 13 3.5 3.5 0.00 0.00 0.00 25 1005.0
20260504190137 74 329 5.2 9.6 0.00 0.00 0.00 25 1005.0
20260504185634 73 10 1.7 2.6 0.00 0.00 0.00 26 1005.1
20260504185130 73 315 2.6 2.6 0.00 0.00 0.00 25 1005.0
20260504184626 73 283 3.5 6.1 0.00 0.00 0.00 25 1005.0
20260504184121 74 330 1.7 3.5 0.00 0.00 0.00 25 1005.0
20260504183619 73 260 6.1 8.7 0.00 0.00 0.00 25 1005.3
20260504183116 74 29 1.7 1.7 0.00 0.00 0.00 26 1004.9
20260504182614 72 299 4.3 7.8 0.00 0.00 0.00 26 1005.0
20260504182111 72 319 4.3 6.1 0.00 0.00 0.00 26 1005.2
20260504181608 72 267 2.6 5.2 0.00 0.00 0.00 26 1005.4
20260504181106 73 253 7.8 12.2 0.00 0.00 0.00 26 1005.3
20260504180605 73 74 4.3 6.1 0.00 0.00 0.00 26 1005.5
20260504180104 72 226 3.5 5.2 0.00 0.00 0.00 26 1005.3
20260504175600 72 358 2.6 3.5 0.00 0.00 0.00 26 1005.2
20260504175057 72 305 5.2 6.1 0.00 0.00 0.00 26 1005.5
20260504174555 72 207 4.3 5.2 0.00 0.00 0.00 27 1005.4
20260504174051 72 213 2.6 3.5 0.00 0.00 0.00 27 1005.5
20260504173548 71 194 3.5 3.5 0.00 0.00 0.00 28 1005.3
20260504173046 70 331 5.2 6.1 0.00 0.00 0.00 28 1005.4
20260504172542 71 288 4.3 6.1 0.00 0.00 0.00 27 1005.7
20260504172038 72 284 3.5 3.5 0.00 0.00 0.00 27 1005.6
20260504171535 73 226 4.3 5.2 0.00 0.00 0.00 27 1005.4
20260504171032 71 190 3.5 6.1 0.00 0.00 0.00 28 1005.5
20260504170528 70 233 3.5 3.5 0.00 0.00 0.00 28 1005.2
20260504150912 68 257 2.6 3.5 0.00 0.00 0.00 32 1006.6
20260504150409 68 192 6.1 12.2 0.00 0.00 0.00 32 1006.9
20260504140835 66 337 0.9 1.7 0.00 0.00 0.00 35 1007.2
20260504140331 65 348 2.6 7.0 0.00 0.00 0.00 36 1007.2
20260504130800 61 345 2.6 3.5 0.00 0.00 0.00 39 1008.1
20260504130256 61 303 3.5 3.5 0.00 0.00 0.00 39 1008.3
20260504120220 55 188 1.7 1.7 0.00 0.00 0.00 45 1008.2
20260504110641 51 348 0.9 0.9 0.00 0.00 0.00 48 1008.5
20260504110138 51 8 0.9 1.7 0.00 0.00 0.00 49 1008.4
20260504100604 48 353 0.9 0.9 0.00 0.00 0.00 52 1008.4
20260504081957 48 354 0.9 0.9 0.00 0.00 0.00 53 1008.0
20260504081455 48 315 0.9 1.7 0.00 0.00 0.00 52 1008.3
20260504080949 48 309 0.9 0.9 0.00 0.00 0.00 53 1008.0
20260504080447 48 359 0.0 0.9 0.00 0.00 0.00 53 1008.2